EW1379 Weather Reports


time (UTC)temp
C
wind
direction
speed
KPH
gust
KPH
rain 1hr
cm
rain 24hr
cm
rain mn
cm
humidity
%
barometer
mb
20260504050537 12 196 3.2 9.7 0.00 0.00 0.00 55 1008.4
20260504045552 12 194 4.8 8.0 0.00 0.00 0.00 54 1008.6
20260504045037 12 185 4.8 11.3 0.00 0.00 0.00 54 1008.5
20260504044549 12 198 6.4 11.3 0.00 0.00 0.00 54 1008.6
20260504044046 12 196 4.8 9.7 0.00 0.00 0.00 53 1008.6
20260504043556 12 196 4.8 12.9 0.00 0.00 0.00 54 1008.6
20260504043046 12 161 6.4 12.9 0.00 0.00 0.00 53 1008.6
20260504042528 12 196 8.0 14.5 0.00 0.00 0.00 53 1008.6
20260504042045 12 195 4.8 11.3 0.00 0.00 0.00 53 1008.5
20260504041526 13 202 6.4 12.9 0.00 0.00 0.00 53 1008.6
20260504041047 13 199 6.4 12.9 0.00 0.00 0.00 53 1008.6
20260504040544 13 205 4.8 11.3 0.00 0.00 0.00 53 1008.5
20260504040030 13 185 4.8 8.0 0.00 0.00 0.00 53 1008.5
20260504035541 13 194 4.8 8.0 0.00 0.00 0.00 53 1008.5
20260504035109 13 190 4.8 11.3 0.00 0.00 0.00 53 1008.4
20260504034537 13 205 4.8 11.3 0.00 0.00 0.00 53 1008.5
20260504034044 13 187 3.2 8.0 0.00 0.00 0.00 53 1008.4
20260504033611 13 198 3.2 9.7 0.00 0.00 0.00 53 1008.4
20260504033025 13 202 4.8 12.9 0.00 0.00 0.00 53 1008.5
20260504032615 13 223 4.8 12.9 0.00 0.00 0.00 52 1008.5
20260504032030 13 202 4.8 9.7 0.00 0.00 0.00 53 1008.5
20260504031541 13 208 4.8 9.7 0.00 0.00 0.00 53 1008.5
20260504031036 13 221 3.2 8.0 0.00 0.00 0.00 54 1008.5
20260504030541 13 222 3.2 9.7 0.00 0.00 0.00 53 1008.6
20260504030039 13 205 4.8 9.7 0.00 0.00 0.00 53 1008.5
20260504025519 13 205 4.8 12.9 0.00 0.00 0.00 54 1008.6
20260504025034 13 202 6.4 12.9 0.00 0.00 0.00 53 1008.6
20260504024518 13 198 3.2 11.3 0.00 0.00 0.00 54 1008.7
20260504024053 12 234 4.8 11.3 0.00 0.00 0.00 55 1008.7
20260504023530 12 218 4.8 9.7 0.00 0.00 0.00 54 1008.7
20260504023110 12 241 4.8 9.7 0.00 0.00 0.00 55 1008.8
20260504022538 12 221 3.2 6.4 0.00 0.00 0.00 55 1008.9
20260504022022 12 256 3.2 6.4 0.00 0.00 0.00 57 1009.0
20260504021537 12 200 0.0 3.2 0.00 0.00 0.00 56 1008.9
20260504021025 12 200 0.0 3.2 0.00 0.00 0.00 57 1008.9
20260504020545 12 200 1.6 4.8 0.00 0.00 0.00 58 1008.9
20260504020059 12 200 3.2 4.8 0.00 0.00 0.00 57 1008.9
20260504015528 12 200 0.0 4.8 0.00 0.00 0.00 57 1008.9
20260504015034 12 200 1.6 8.0 0.00 0.00 0.00 57 1008.8
20260504014525 12 200 4.8 8.0 0.00 0.00 0.00 56 1008.8
20260504014034 12 246 0.0 4.8 0.00 0.00 0.00 57 1009.0
20260504013547 12 188 0.0 11.3 0.00 0.00 0.00 57 1009.1
20260504013052 12 262 3.2 11.3 0.00 0.00 0.00 57 1009.1
20260504012526 12 220 1.6 14.5 0.00 0.00 0.00 57 1009.3
20260504012020 12 241 6.4 16.1 0.00 0.00 0.00 57 1009.4
20260504011534 12 245 6.4 17.7 0.00 0.00 0.00 57 1009.3
20260504011029 12 244 6.4 17.7 0.00 0.00 0.00 57 1009.3
20260504010519 12 221 4.8 16.1 0.00 0.00 0.00 58 1009.2
20260504010038 12 267 3.2 11.3 0.00 0.00 0.00 59 1009.1
20260504005526 12 267 6.4 12.9 0.00 0.00 0.00 59 1009.3
20260504005048 12 218 4.8 22.5 0.00 0.00 0.00 59 1009.5
20260504004609 12 254 11.3 22.5 0.00 0.00 0.00 58 1009.6
20260504004044 12 259 9.7 24.1 0.00 0.00 0.00 58 1009.7
20260504003533 12 311 9.7 24.1 0.00 0.00 0.00 57 1009.6
20260504003027 12 262 4.8 17.7 0.00 0.00 0.00 57 1009.5
20260504002536 12 332 6.4 14.5 0.00 0.00 0.00 56 1009.3
20260504002026 12 220 6.4 22.5 0.00 0.00 0.00 55 1009.4
20260504001540 12 227 8.0 22.5 0.00 0.00 0.00 54 1009.3
20260504001031 12 266 4.8 16.1 0.00 0.00 0.00 54 1009.1
20260504000538 12 248 6.4 16.1 0.00 0.00 0.00 53 1009.0
20260504000046 12 254 8.0 16.1 0.00 0.00 0.00 53 1009.0
20260503235523 13 271 8.0 40.2 0.00 0.00 0.00 52 1009.1
20260503235048 13 218 14.5 40.2 0.00 0.00 0.00 52 1009.1
20260503234541 13 236 24.1 41.8 0.00 0.00 0.00 51 1009.1
20260503234049 13 275 11.3 35.4 0.00 0.00 0.00 51 1009.2
20260503233523 13 258 12.9 25.7 0.00 0.00 0.00 50 1009.0
20260503233048 13 263 12.9 25.7 0.00 0.00 0.00 50 1009.0
20260503232537 13 237 9.7 25.7 0.00 0.00 0.00 50 1008.9
20260503232042 13 233 9.7 22.5 0.00 0.00 0.00 48 1008.8
20260503231524 13 235 11.3 22.5 0.00 0.00 0.00 47 1008.7
20260503231108 13 221 8.0 25.7 0.00 0.00 0.00 47 1008.7
20260503230537 13 244 8.0 19.3 0.00 0.00 0.00 46 1008.7
20260503230032 14 242 6.4 27.4 0.00 0.00 0.00 46 1008.7
20260503225540 14 261 11.3 27.4 0.00 0.03 0.00 44 1008.5
20260503225041 13 254 6.4 19.3 0.00 0.03 0.00 45 1008.5
20260503224545 13 209 8.0 17.7 0.00 0.03 0.00 46 1008.4
20260503224047 13 182 3.2 16.1 0.00 0.03 0.00 47 1008.5
20260503223553 13 255 6.4 16.1 0.00 0.03 0.00 46 1008.4
20260503223025 13 271 3.2 17.7 0.00 0.03 0.00 47 1008.6
20260503222554 13 262 6.4 19.3 0.00 0.03 0.00 47 1008.7
20260503222024 13 275 9.7 22.5 0.00 0.03 0.00 45 1008.7
20260503221555 14 253 9.7 22.5 0.00 0.03 0.00 46 1008.7
20260503221024 14 293 8.0 19.3 0.00 0.03 0.00 46 1008.8
20260503220539 14 262 9.7 20.9 0.00 0.03 0.00 44 1008.8
20260503220028 14 277 11.3 22.5 0.00 0.03 0.00 44 1008.8
20260503215534 14 254 11.3 25.7 0.00 0.03 0.00 44 1008.8
20260503215028 14 259 8.0 22.5 0.00 0.03 0.00 44 1008.8
20260503214539 14 246 11.3 22.5 0.00 0.03 0.00 44 1008.8
20260503214037 14 248 8.0 29.0 0.00 0.03 0.00 43 1008.7
20260503213542 15 240 11.3 29.0 0.00 0.03 0.00 42 1008.5
20260503213033 15 286 8.0 27.4 0.00 0.03 0.00 44 1008.5
20260503212524 15 261 6.4 14.5 0.00 0.03 0.00 44 1008.6
20260503212025 15 259 4.8 22.5 0.00 0.03 0.00 45 1008.5
20260503211534 15 257 6.4 24.1 0.00 0.03 0.00 43 1008.4
20260503211053 15 256 4.8 24.1 0.00 0.03 0.00 43 1008.4
20260503210526 15 244 8.0 16.1 0.00 0.03 0.00 43 1008.5
20260503210034 15 221 4.8 16.1 0.00 0.03 0.00 43 1008.4
20260503205529 15 230 6.4 11.3 0.00 0.03 0.00 43 1008.6
20260503205102 15 233 3.2 9.7 0.00 0.03 0.00 45 1008.7
20260503204542 15 219 3.2 11.3 0.00 0.03 0.00 42 1008.8
20260503204055 15 241 4.8 14.5 0.00 0.03 0.00 44 1008.7
20260503203521 15 223 6.4 24.1 0.00 0.03 0.00 42 1008.8
20260503203038 15 244 9.7 24.1 0.00 0.03 0.00 40 1008.9
20260503202536 14 240 8.0 12.9 0.00 0.03 0.00 45 1008.9
20260503202036 14 256 4.8 16.1 0.00 0.03 0.00 46 1009.0
20260503201617 14 244 4.8 17.7 0.00 0.03 0.00 45 1009.1
20260503201050 14 255 3.2 16.1 0.00 0.03 0.00 46 1009.3
20260503200529 14 202 4.8 20.9 0.00 0.03 0.00 46 1009.4
20260503200028 13 281 8.0 20.9 0.00 0.03 0.00 44 1009.5
20260503195539 14 257 6.4 14.5 0.00 0.03 0.00 44 1009.5
20260503195026 13 267 6.4 16.1 0.00 0.03 0.00 47 1009.6
20260503194552 13 252 4.8 17.7 0.00 0.03 0.00 45 1009.7
20260503194033 13 236 8.0 17.7 0.00 0.03 0.00 44 1009.7
20260503193527 13 239 6.4 17.7 0.00 0.03 0.00 43 1009.8
20260503193039 13 205 6.4 14.5 0.00 0.03 0.00 47 1010.0
20260503192608 13 271 6.4 22.5 0.00 0.03 0.00 45 1010.0
20260503192025 13 236 9.7 27.4 0.00 0.03 0.00 44 1010.1
20260503191552 13 263 12.9 24.1 0.00 0.03 0.00 43 1010.2
20260503191025 13 271 11.3 22.5 0.00 0.03 0.00 45 1010.2
20260503190534 13 267 9.7 22.5 0.00 0.03 0.00 45 1010.4
20260503190039 13 229 6.4 17.7 0.00 0.03 0.00 44 1010.3
20260503185525 13 224 8.0 22.5 0.00 0.03 0.00 44 1010.3
20260503185048 13 240 8.0 22.5 0.00 0.03 0.00 44 1010.5
20260503184529 12 241 11.3 19.3 0.00 0.03 0.00 44 1010.6
20260503184050 12 232 9.7 20.9 0.00 0.03 0.00 48 1010.8
20260503183537 12 239 8.0 33.8 0.00 0.03 0.00 49 1010.8
20260503183059 12 311 4.8 22.5 0.00 0.03 0.00 51 1010.8
20260503182543 12 315 9.7 24.1 0.00 0.03 0.00 47 1010.8
20260503182040 12 294 12.9 24.1 0.00 0.03 0.00 45 1010.8
20260503181535 13 292 8.0 22.5 0.00 0.03 0.00 48 1010.9
20260503181023 13 5 6.4 22.5 0.00 0.03 0.00 48 1010.7
20260503180554 13 286 9.7 16.1 0.00 0.03 0.00 47 1010.8
20260503180028 12 311 8.0 19.3 0.00 0.03 0.00 49 1010.9
20260503175546 12 312 8.0 30.6 0.00 0.03 0.00 48 1011.0
20260503175045 13 308 14.5 30.6 0.00 0.03 0.00 48 1011.0
20260503174533 12 258 8.0 22.5 0.00 0.03 0.00 49 1011.0
20260503174026 13 238 6.4 20.9 0.00 0.03 0.00 49 1011.0
20260503173534 13 258 8.0 27.4 0.00 0.03 0.00 48 1011.0
20260503173048 13 273 6.4 27.4 0.00 0.03 0.00 51 1011.1
20260503172545 12 245 9.7 20.9 0.00 0.03 0.00 48 1011.1
20260503172045 12 277 6.4 25.7 0.00 0.03 0.00 50 1011.2
20260503171559 12 249 12.9 25.7 0.00 0.03 0.00 48 1011.2
20260503171103 12 233 6.4 19.3 0.00 0.03 0.00 52 1011.2
20260503170607 12 185 8.0 19.3 0.00 0.03 0.00 49 1011.2
20260503150525 10 293 4.8 11.3 0.00 0.03 0.00 51 1012.8
20260503131050 8 262 4.8 16.1 0.00 0.03 0.00 58 1013.7
20260503130523 7 251 4.8 11.3 0.00 0.03 0.00 59 1013.8
20260503110536 3 254 0.0 4.8 0.00 0.03 0.00 83 1013.5
20260503081555 3 250 0.0 0.0 0.00 0.05 0.00 80 1013.2
20260503081030 3 255 0.0 0.0 0.00 0.05 0.00 80 1013.3
20260503080526 3 255 0.0 0.0 0.00 0.05 0.00 80 1013.3
20260503072539 3 255 0.0 0.0 0.00 0.05 0.00 78 1013.2
20260503072027 3 255 0.0 0.0 0.00 0.05 0.00 78 1013.2
20260503071547 3 255 0.0 0.0 0.00 0.05 0.00 78 1013.3
20260503071030 3 255 0.0 0.0 0.00 0.05 0.00 77 1013.3
20260503070536 4 255 0.0 0.0 0.00 0.05 0.00 77 1013.2